Location: Grandview
(34.8900°N, 117.1058°W)
Time: 22:56:43
(UTC-07:00)

Vanguard 2 Rocket - All Passes

Search period start: 22 October 2017 00:00
Search period end: 01 November 2017 00:00
Orbit: 555 x 3327 km, 32.9° (Epoch: 21 October)

Date Brightness Start Highest point End Pass type
(mag) Time Alt. Az. Time Alt. Az. Time Alt. Az.
22 Oct - 10:55:50 10° SSW 10:59:26 27° SSE 11:04:13 10° E daylight
22 Oct - 13:06:45 10° WSW 13:11:59 73° S 13:21:01 10° E daylight
22 Oct - 15:18:46 10° W 15:26:01 72° S 15:39:19 10° ESE daylight
22 Oct - 17:31:41 10° W 17:41:17 45° SSW 17:56:57 10° SE daylight
22 Oct - 19:48:07 10° WSW 19:57:36 21° SW 20:09:34 10° S visible
23 Oct - 09:58:26 10° S 10:00:42 14° SE 10:03:14 10° ESE daylight
23 Oct - 12:08:16 10° WSW 12:12:46 59° SSE 12:19:52 10° E daylight
23 Oct - 14:20:04 10° W 14:26:12 76° S 14:37:20 10° ESE daylight
23 Oct - 16:32:28 10° W 16:40:49 52° SSW 16:55:21 10° SE daylight
23 Oct - 18:47:03 10° W 18:56:40 27° SSW 19:10:05 10° SSE visible
24 Oct - 11:09:54 10° SW 11:13:49 41° SSE 11:19:13 10° E daylight
24 Oct - 13:21:27 10° W 13:26:40 77° S 13:35:42 10° E daylight
24 Oct - 15:33:33 10° W 15:40:42 60° SSW 15:53:34 10° ESE daylight
24 Oct - 17:46:58 10° W 17:55:57 33° SSW 18:09:40 10° SSE daylight
24 Oct - 20:07:55 10° SW 20:12:18 12° SW 20:17:06 10° SSW visible
25 Oct - 10:11:42 10° SSW 10:15:00 25° SSE 10:18:53 10° E daylight
25 Oct - 12:22:53 10° WSW 12:27:24 71° S 12:34:35 10° E daylight
25 Oct - 14:34:49 10° W 14:40:54 67° S 14:51:49 10° ESE daylight
25 Oct - 16:47:31 10° W 16:55:30 39° SSW 17:08:40 10° SE daylight
25 Oct - 19:04:07 10° WSW 19:11:22 17° SSW 19:20:28 10° S visible
26 Oct - 09:13:55 10° S 09:16:11 15° SSE 09:18:31 10° ESE daylight
26 Oct - 11:24:19 10° WSW 11:28:21 57° SSE 11:34:00 10° E daylight
26 Oct - 13:36:11 10° W 13:41:23 72° S 13:50:20 10° ESE daylight
26 Oct - 15:48:26 10° W 15:55:23 46° SSW 16:07:23 10° SE daylight
26 Oct - 18:03:00 10° WSW 18:10:40 22° SSW 18:21:19 10° SSE visible
27 Oct - 10:25:46 10° SW 10:29:27 40° SSE 10:33:54 10° E daylight
27 Oct - 12:37:35 10° W 12:42:06 74° S 12:49:17 10° E daylight
27 Oct - 14:49:37 10° W 14:55:35 53° SSW 15:06:02 10° ESE daylight
27 Oct - 17:02:59 10° WSW 17:10:15 27° SSW 17:21:12 10° SSE daylight
28 Oct - 09:27:14 10° SW 09:30:37 26° SSE 09:34:06 10° E daylight
28 Oct - 11:38:57 10° WSW 11:43:00 69° S 11:48:44 10° E daylight
28 Oct - 13:50:57 10° W 13:56:05 60° S 14:04:49 10° ESE daylight
28 Oct - 16:03:36 10° W 16:10:08 32° SSW 16:20:36 10° SE daylight
28 Oct - 18:21:13 10° SW 18:25:31 12° SSW 18:30:33 10° S visible
29 Oct - 08:28:53 10° SSW 08:31:43 17° SSE 08:34:21 10° ESE daylight
29 Oct - 10:40:13 10° WSW 10:44:03 57° SSE 10:48:42 10° E daylight
29 Oct - 12:52:19 10° W 12:56:48 67° S 13:03:54 10° ESE daylight
29 Oct - 15:04:35 10° W 15:10:19 38° SSW 15:19:47 10° SE daylight
29 Oct - 17:19:32 10° WSW 17:25:05 17° SSW 17:32:22 10° S daylight
30 Oct - 07:31:06 10° S 07:32:38 11° SSE 07:34:04 10° SE daylight
30 Oct - 09:41:22 10° SW 09:45:11 41° SSE 09:49:05 10° E daylight
30 Oct - 11:53:39 10° W 11:57:42 70° S 12:03:26 10° E daylight
30 Oct - 14:05:47 10° W 14:10:47 45° SSW 14:18:59 10° SE daylight
30 Oct - 16:19:23 10° WSW 16:24:57 21° SSW 16:32:52 10° SSE daylight
31 Oct - 08:42:23 10° SW 08:46:17 29° SSE 08:49:45 10° E daylight
31 Oct - 10:54:51 10° W 10:58:44 68° S 11:03:25 10° E daylight
31 Oct - 13:07:06 10° W 13:11:31 52° SSW 13:18:21 10° ESE daylight
31 Oct - 15:19:55 10° WSW 15:25:06 25° SSW 15:32:50 10° SSE daylight
